Regional Weather Roundup
Issued by NWS Charleston, SC

Current Version | Previous Version | Graphics & Text | Print | Product List | Glossary On
Versions: 1 2 3 4 5 6 7 8 9 10 11 12 13 14 15 16 17 18 19 20 21 22 23 24 25 26 27 28 29 30 31 32 33 34 35 36 37 38 39 40 41 42 43 44 45 46 47 48 49 50
000
ASUS42 KCHS 261712
RWRCHS

REGIONAL WEATHER ROUNDUP
NATIONAL WEATHER SERVICE CHARLESTON SC
100 PM EDT WED APR 26 2017

NOTE: "FAIR" INDICATES FEW OR NO CLOUDS BELOW 12,000 FEET WITH NO
SIGNIFICANT WEATHER AND/OR OBSTRUCTIONS TO VISIBILITY.

NOT ALL STATIONS ARE QUALITY CONTROLLED. USE DATA WITH CAUTION...
ESPECIALLY DEWPOINT OBSERVATIONS.

SCZ027-030-031-034>040-042>050-261800-
...SOUTHEAST SOUTH CAROLINA...

CITY           SKY/WX    TMP DP  RH WIND       PRES   REMARKS
N CHARLESTON   MOSUNNY   81  57  43 W6        29.86F
WATERFRONT PRK   N/A     80  61  52 SW8       29.85S
JOHNS ISLAND   FAIR      81  66  61 S12       29.87F
PINOPOLIS        N/A     79  64  61 CALM      29.80F
MONCKS CORNER  PTSUNNY   79  55  44 W3        29.85F
SUMMERVILLE    PTSUNNY   81  59  47 W6        29.87F
BEAUFORT MCAS  MOSUNNY   82  61  48 S6        29.86F
BEAUFORT ARPT  FAIR      79  61  53 S7        29.87F
HILTON HEAD IS SUNNY     79  64  61 S9        29.88F
WALTERBORO     PTSUNNY   81  59  47 S6        29.87F
ALLENDALE      FAIR      81  57  44 VRB5      29.84F

...SOUTHERN MIDLANDS AND PEE DEE...

CITY           SKY/WX    TMP DP  RH WIND       PRES   REMARKS
GEORGETOWN     PTSUNNY   79  70  73 E10       29.87F
KINGSTREE      FAIR      81  57  44 S6        29.84F
ORANGEBURG     MOSUNNY   80  58  46 SW10      29.85F
BARNWELL       FAIR      82  59  44 CALM      29.85F
AIKEN          FAIR      79  55  44 S6        29.88F
MANNING        FAIR      79  61  53 NW5       29.84F
COLUMBIA       MOSUNNY   83  57  41 SW12      29.82F
SUMTER         MOSUNNY   82  59  45 W12       29.82F
FLORENCE       MOSUNNY   80  62  54 SW8       29.84F
MYRTLE BEACH   MOSUNNY   73  63  68 S14       29.87F
N MYRTLE BEACH SUNNY     73  63  70 S8        29.87F

$$

GAZ063-065-086>088-099>101-113>116-118-119-134>141-150-261800-
...SOUTHEAST GEORGIA...

CITY           SKY/WX    TMP DP  RH WIND       PRES   REMARKS
SAVANNAH ARPT  MOSUNNY   84  57  39 VRB6      29.86F
HUNTER AAF     SUNNY     82  63  52 S5        29.85F
FORT STEWART   PTSUNNY   80  58  46 CALM      29.84F
STATESBORO     MOSUNNY   82  57  42 SW9       29.86F
SYLVANIA       PTSUNNY  N/A N/A N/A W5        29.86F
CLAXTON        FAIR      82  62  52 E7        29.86F

...CSRA...CENTRAL AND FAR SOUTHEAST GEORGIA...

CITY           SKY/WX    TMP DP  RH WIND       PRES   REMARKS
THOMSON        MOSUNNY   80  58  47 W8        29.89F
AUGUSTA-BUSH   SUNNY     83  58  42 VRB5      29.82F
AUGUSTA-DANIEL MOSUNNY   80  54  40 VRB3      29.84F
SWAINSBORO     FAIR      81  55  41 S6        29.86F
VIDALIA        MOSUNNY   81  59  47 SW6       29.86F
EASTMAN        FAIR      80  45  29 SW5       29.88F
HAZLEHURST     PTSUNNY   81  62  52 S3        29.86F
ALMA           PTSUNNY   81  59  47 S9        29.87F
WAYCROSS       PTSUNNY   82  62  50 SW10      29.87F
JESUP          FAIR      82  54  36 SE3       29.87F
BAXLEY         PTSUNNY   81  63  54 CALM      29.86F
BRUNSWICK      SUNNY     81  61  50 E3        29.88F
SAINT SIMONS   SUNNY     77  60  55 SE8       29.88F

$$

SCZ027-028-034-036>038-045-046-048>050-GAZ119-141-261800-
...LAKE AND SUPPLEMENTAL COASTAL OBSERVATIONS...

STATION/POSITION TIME  TEMP    WIND        PRES    WAVE   SWELL
                       AIR SEA DIR/SP/G            HT/PER HT/PER/DIR
                 (UTC) (F)     (DEG/KT/KT) (MB)    (FT/S) (FT/S/D)
WINYAH BAY       1545   71      80/  6     1012.0
LAKE MURRAY      1620   73     170/  5/  7 1010.2
ACE BASIN NERRS  1545   80     220/  2     1012.0
FORT PULASKI     1648   76 74  210/  6/  9 1012.0F
SAPELO ISLAND    1600   77        CALM     1012.0

$$

ANZ835-935-AMZ111-154-330-350-352-354-370-450-454-472-261800-
...C-MAN AND BUOY OBSERVATIONS...

STATION/POSITION TIME  TEMP    WIND        PRES    WAVE   SWELL
                       AIR SEA DIR/SP/G            HT/PER HT/PER/DIR
                 (UTC) (F)     (DEG/KT/KT) (MB)    (FT/S) (FT/S/D)
BUOY 41004       1650   72 73  240/ 14/ 17 1012.0S   4/ 9   3/120/ 9
BUOY 41008       1550   70 72  240/  4/  4 1012.4    2/ 9   2/ 90/ 9
FOLLY BEACH CMAN 1600   75     200/  7/  8 1012.4R
CAPERS NEARSHORE 1608   75 72  220/ 10/ 12 1011.7R
FRIPP NEARSHORE  1608   70 72  220/ 12/ 14 1012.2R


STATION/POSITION TIME  TEMP    WIND        PRES    WAVE   SWELL
                       AIR SEA DIR/SP/G            HT/PER HT/PER/DIR
                 (UTC) (F)     (DEG/KT/KT) (MB)    (FT/S) (FT/S/D)
5E ST. MARYS GA  1630      74                N/A     2/10   2/100/11
FRYING PAN BUOY  1650   71 74  330/  2/  4 1011.9F   4/ 9   3/130/ 9
BUOY 41025       1650   69 76  280/ 12/ 14 1010.5S   6/ 9   5/150/ 9
CAPE LOOKOUT NC  1600   68     260/  9/ 11 1010.9R
BUOY 41002       1650   74 75  230/ 16/ 19 1012.9R   8/ 9   5/120/ 9
BUOY 41010       1650   76 77  230/ 10/ 12 1012.8R   5/ 9   3/120/ 9
ST AUGUSTINE FL  1700   75 74  190/  5/  6 1013.1F


$$




USA.gov is the U.S. government's official web portal to all federal, state and local government web resources and services.